Weather History for Marshfield, WI

Change the Weather History Date:

Wednesday, May 22, 2013

  Actual Average Record
Temperature  
Mean Temperature 56 °F -  
Max Temperature 61 °F 72 °F 90 °F (1925)
Min Temperature 50 °F 47 °F 26 °F (1967)
Degree Days  
Heating Degree Days 10    
Growing Degree Days 6 (Base 50)    
Moisture  
Dew Point 56 °F    
Average Humidity 92    
Maximum Humidity 96    
Minimum Humidity 84    
Precipitation  
Precipitation 0.63 in - - ()
Sea Level Pressure  
Sea Level Pressure 29.73 in    
Wind  
Wind Speed 6 mph (NNE)    
Max Wind Speed 16 mph    
Max Gust Speed 24 mph    
Visibility 6 miles    
Events Rain    
Averages and records for this station are not official NWS values.
T = Trace of Precipitation, MM = Missing Value Source: NWS Daily Summary

Daily Weather History Graph

Daily Weather History Graph

Search for Another Location

Airport:

Trip Planner

Search our weather history database for the weather conditions in past years. The results will help you decide how hot, cold, wet, or windy it might be!

Date:

Astronomy

May. 22, 2013 Rise Set
Actual Time 5:25 AM CDT 8:29 PM CDT
Civil Twilight 4:50 AM CDT 9:04 PM CDT
Nautical Twilight 4:06 AM CDT 9:49 PM CDT
Astronomical Twilight 3:12 AM CDT 10:43 PM CDT
Moon 5:47 PM CDT (5/22) 3:36 AM CDT (5/22)
Length of Visible Light 16h 14m
Length of Day
15h 04m
Waxing Gibbous, 91% of the Moon is Illuminated
May 22
Waxing Gibbous
May 24
Full
May 31
Last Quarter
Jun 8
New
Jun 16
First Quarter

Hourly Weather History & Observations

Time (CDT) Temp. Dew Point Humidity Pressure Visibility Wind Dir Wind Speed Gust Speed Precip Events Conditions
12:54 AM 55.0 °F 54.0 °F 96% 29.69 in 10.0 mi Calm Calm - N/A   Clear
1:54 AM 53.1 °F 52.0 °F 96% 29.69 in 7.0 mi Calm Calm - N/A   Mostly Cloudy
2:07 AM 53.6 °F 51.8 °F 94% 29.68 in 2.0 mi Calm Calm - N/A   Mostly Cloudy
2:15 AM 53.6 °F 51.8 °F 94% 29.68 in 9.0 mi Calm Calm - N/A   Overcast
2:54 AM 54.0 °F 52.0 °F 93% 29.68 in 10.0 mi Calm Calm - N/A   Overcast
3:54 AM 55.0 °F 53.1 °F 93% 29.67 in 10.0 mi NE 3.5 mph - N/A   Overcast
4:54 AM 55.0 °F 53.1 °F 93% 29.67 in 10.0 mi ENE 3.5 mph - N/A   Overcast
5:54 AM 57.0 °F 53.1 °F 87% 29.68 in 10.0 mi NNE 3.5 mph - N/A   Overcast
6:54 AM 57.9 °F 53.1 °F 84% 29.68 in 10.0 mi NE 5.8 mph - N/A   Overcast
7:54 AM 57.0 °F 54.0 °F 89% 29.68 in 10.0 mi NE 5.8 mph - N/A   Overcast
8:54 AM 57.9 °F 55.9 °F 93% 29.68 in 10.0 mi NE 6.9 mph - N/A   Overcast
9:54 AM 59.0 °F 55.9 °F 90% 29.68 in 8.0 mi NE 10.4 mph - N/A   Overcast
10:54 AM 60.1 °F 57.9 °F 93% 29.69 in 6.0 mi NNE 6.9 mph - 0.00 in   Overcast
11:08 AM 60.8 °F 57.2 °F 88% 29.69 in 5.0 mi NE 5.8 mph - 0.00 in Rain Light Rain
11:32 AM 60.8 °F 57.2 °F 88% 29.69 in 7.0 mi NNE 6.9 mph - 0.00 in   Overcast
11:54 AM 60.1 °F 57.9 °F 93% 29.69 in 4.0 mi NE 5.8 mph - 0.00 in Rain Light Rain
12:38 PM 60.8 °F 59.0 °F 94% 29.69 in 3.0 mi East 8.1 mph - 0.02 in Rain Rain
12:47 PM 60.8 °F 59.0 °F 94% 29.69 in 3.0 mi ENE 5.8 mph - 0.02 in Rain Light Rain
12:54 PM 61.0 °F 59.0 °F 93% 29.69 in 3.0 mi ENE 8.1 mph - 0.03 in Rain Light Rain
1:04 PM 60.8 °F 59.0 °F 94% 29.69 in 2.5 mi NE 5.8 mph - 0.01 in Rain Rain
1:16 PM 60.8 °F 59.0 °F 94% 29.69 in 3.0 mi NE 6.9 mph - 0.02 in Rain Light Rain
1:27 PM 60.8 °F 59.0 °F 94% 29.69 in 4.0 mi NE 6.9 mph - 0.03 in Rain Light Rain
1:37 PM 60.8 °F 57.2 °F 88% 29.69 in 4.0 mi NNE 9.2 mph - 0.03 in Rain Light Rain
1:54 PM 59.0 °F 57.9 °F 96% 29.70 in 4.0 mi North 6.9 mph - 0.03 in Rain Rain
2:10 PM 59.0 °F 57.2 °F 94% 29.70 in 4.0 mi North 8.1 mph - 0.02 in Rain Light Rain
2:54 PM 57.9 °F - N/A% 29.73 in 2.5 mi North 8.1 mph - 0.09 in Rain Rain
3:30 PM 57.2 °F - N/A% 29.71 in 2.5 mi North 8.1 mph - 0.07 in Rain Rain
3:43 PM 57.2 °F - N/A% 29.72 in 3.0 mi North 9.2 mph - 0.10 in Rain Rain
3:54 PM 57.0 °F - N/A% 29.73 in 2.5 mi North 10.4 mph - 0.13 in Rain Rain
4:29 PM 55.4 °F - N/A% 29.72 in 3.0 mi NNE 12.7 mph - 0.11 in Rain Rain
4:54 PM 55.9 °F - N/A% 29.74 in 3.0 mi North 11.5 mph 21.9 mph 0.18 in Rain Rain
5:08 PM 55.4 °F - N/A% 29.73 in 4.0 mi NNE 10.4 mph - 0.03 in Rain Rain
5:54 PM 55.0 °F - N/A% 29.75 in 5.0 mi NNE 13.8 mph 23.0 mph 0.08 in Rain Light Rain
6:31 PM 53.6 °F - N/A% 29.75 in 6.0 mi NNE 12.7 mph - 0.03 in Rain Light Rain
6:40 PM 53.6 °F - N/A% 29.75 in 6.0 mi NNE 12.7 mph 20.7 mph 0.03 in Rain Light Rain
6:54 PM 54.0 °F - N/A% 29.77 in 6.0 mi NNE 13.8 mph 23.0 mph 0.04 in Rain Light Rain
7:32 PM 53.6 °F - N/A% 29.78 in 5.0 mi NNE 16.1 mph 21.9 mph 0.01 in Rain Light Rain
7:44 PM 53.6 °F - N/A% 29.78 in 6.0 mi NNE 11.5 mph 21.9 mph 0.01 in Rain Light Rain
7:54 PM 53.1 °F - N/A% 29.79 in 6.0 mi NNE 16.1 mph 23.0 mph 0.02 in Rain Light Rain
8:02 PM 51.8 °F - N/A% 29.79 in 6.0 mi NNE 13.8 mph 24.2 mph 0.00 in Rain Light Rain
8:54 PM 51.1 °F - N/A% 29.82 in 8.0 mi NNE 15.0 mph 21.9 mph 0.03 in Rain Light Rain
9:07 PM 51.8 °F - N/A% 29.81 in 9.0 mi NNE 15.0 mph 20.7 mph 0.00 in Rain Light Rain
9:27 PM 50.0 °F - N/A% 29.82 in 10.0 mi NNE 16.1 mph 24.2 mph 0.00 in Rain Light Rain
9:54 PM 50.0 °F - N/A% 29.85 in 9.0 mi NNE 11.5 mph 24.2 mph 0.00 in Rain Light Rain
10:54 PM 50.0 °F - N/A% 29.87 in 10.0 mi NE 12.7 mph 24.2 mph 0.00 in Rain Light Rain
11:54 PM 50.0 °F - N/A% 29.89 in 8.0 mi NE 12.7 mph 20.7 mph 0.00 in Rain Light Rain